QPF
0.04 0.04 0.03 0.03 0.03 0.02 0.02 0.02 0.02 0.01 0.01 0.01 0.01 0.01 0.01 0.01 0.02 0.03 0.03 0.04 0.04 0.04 0.05 0.05 0.05 0.04 0.04 0.03 0.02 0.01 0.01 0.01 0.01 0.01 0.01 0.01 0.01 0.01
0.06 0.05 0.05 0.05 0.05 0.04 0.03 0.03 0.02 0.02 0.01 0.01 0.01 0.01 0.02 0.02 0.03 0.04 0.04 0.04 0.03 0.03 0.04 0.05 0.05 0.04 0.04 0.03 0.02 0.02 0.02 0.01 0.01 0.01 0.01 0.01 0.00 0.01
0.12 0.10 0.08 0.07 0.06 0.05 0.05 0.04 0.03 0.03 0.03 0.02 0.02 0.02 0.03 0.04 0.04 0.04 0.04 0.04 0.03 0.03 0.03 0.04 0.03 0.03 0.03 0.03 0.03 0.02 0.02 0.01 0.01 0.01 0.01 0.01 0.00 0.00
0.08 0.08 0.07 0.06 0.05 0.04 0.04 0.04 0.04 0.03 0.03 0.03 0.01 0.01 0.02 0.02 0.03 0.03 0.03 0.03 0.03 0.05 0.04 0.04 0.03 0.03 0.03 0.02 0.02 0.02 0.01 0.01 0.01 0.01 0.01 0.01 0.01 0.01
0.08 0.07 0.07 0.07 0.05 0.05 0.05 0.04 0.04 0.05 0.04 0.03 0.02 0.02 0.02 0.01 0.02 0.02 0.02 0.02 0.02 0.03 0.04 0.04 0.04 0.04 0.04 0.04 0.04 0.04 0.03 0.03 0.03 0.02 0.01 0.01 0.01 0.01
0.07 0.07 0.08 0.09 0.09 0.09 0.09 0.08 0.08 0.06 0.05 0.05 0.04 0.03 0.04 0.04 0.04 0.03 0.03 0.03 0.03 0.04 0.06 0.06 0.06 0.06 0.06 0.06 0.06 0.06 0.06 0.06 0.06 0.06 0.05 0.04 0.04 0.03
0.07 0.08 0.08 0.10 0.11 0.10 0.09 0.09 0.09 0.09 0.08 0.08 0.08 0.06 0.06 0.06 0.06 0.06 0.06 0.06 0.06 0.06 0.05 0.04 0.04 0.04 0.04 0.04 0.05 0.05 0.05 0.06 0.06 0.06 0.06 0.05 0.05 0.05
0.08 0.08 0.09 0.09 0.10 0.10 0.09 0.10 0.10 0.10 0.09 0.09 0.09 0.09 0.09 0.09 0.08 0.08 0.07 0.06 0.05 0.03 0.03 0.02 0.02 0.02 0.02 0.02 0.03 0.03 0.03 0.04 0.04 0.04 0.04 0.04 0.04 0.04
0.05 0.06 0.07 0.08 0.09 0.09 0.12 0.12 0.12 0.12 0.12 0.11 0.10 0.09 0.09 0.08 0.08 0.07 0.06 0.05 0.04 0.03 0.03 0.03 0.02 0.02 0.02 0.02 0.02 0.02 0.02 0.02 0.02 0.02 0.03 0.04 0.04 0.04
0.06 0.06 0.07 0.08 0.08 0.09 0.11 0.11 0.10 0.10 0.11 0.11 0.11 0.10 0.09 0.08 0.08 0.07 0.06 0.05 0.04 0.03 0.02 0.03 0.02 0.02 0.01 0.01 0.02 0.01 0.01 0.01 0.01 0.01 0.01 0.02 0.02 0.02
0.07 0.08 0.09 0.10 0.12 0.10 0.08 0.09 0.09 0.09 0.10 0.11 0.10 0.10 0.09 0.08 0.07 0.06 0.05 0.04 0.04 0.03 0.03 0.03 0.03 0.03 0.02 0.02 0.01 0.01 0.01 0.01 0.01 0.01 0.01 0.01 0.01 0.02
0.06 0.07 0.09 0.08 0.08 0.07 0.05 0.05 0.06 0.07 0.07 0.08 0.08 0.07 0.06 0.06 0.05 0.04 0.04 0.04 0.04 0.04 0.04 0.04 0.04 0.04 0.03 0.03 0.02 0.01 0.01 0.00 0.00 0.00 0.00 0.01 0.01 0.01
0.04 0.04 0.04 0.05 0.04 0.04 0.03 0.03 0.05 0.05 0.04 0.04 0.04 0.03 0.03 0.03 0.03 0.02 0.02 0.02 0.03 0.03 0.02 0.02 0.03 0.03 0.02 0.02 0.01 0.01 0.01 0.01 0.01 0.01 0.01 0.01 0.01 0.01
0.02 0.02 0.03 0.04 0.04 0.04 0.04 0.05 0.05 0.04 0.03 0.03 0.02 0.02 0.01 0.02 0.02 0.01 0.01 0.01 0.01 0.01 0.01 0.01 0.01 0.02 0.01 0.01 0.01 0.01 0.00 0.00 0.00 0.00 0.00 0.01 0.01 0.01
0.02 0.03 0.04 0.05 0.06 0.06 0.07 0.07 0.06 0.04 0.03 0.03 0.03 0.02 0.02 0.02 0.02 0.02 0.01 0.01 0.01 0.01 0.01 0.01 0.01 0.01 0.01 0.01 0.01 0.00 0.00 0.00 0.00 0.00 0.00 0.00 0.00 0.00
0.01 0.03 0.05 0.06 0.05 0.04 0.05 0.06 0.06 0.06 0.05 0.05 0.05 0.06 0.05 0.03 0.03 0.02 0.02 0.02 0.01 0.01 0.01 0.01 0.01 0.00 0.00 0.00 0.00 0.00 0.00 0.00 0.00 0.00 0.00 0.00 0.00 0.00
0.02 0.01 0.01 0.01 0.01 0.01 0.02 0.04 0.05 0.06 0.06 0.06 0.06 0.04 0.03 0.02 0.02 0.02 0.01 0.01 0.01 0.01 0.01 0.00 0.00 0.00 0.00 0.00 0.00 0.00 0.00 0.00 0.00 0.00 0.00 0.00 0.00 0.00
0.02 0.01 0.02 0.02 0.03 0.03 0.04 0.04 0.04 0.03 0.03 0.03 0.03 0.02 0.02 0.02 0.02 0.01 0.01 0.01 0.00 0.00 0.00 0.00 0.00 0.00 0.00 0.00 0.00 0.00 0.00 0.00 0.00 0.00 0.00 0.00 0.00 0.00
0.02 0.03 0.03 0.03 0.03 0.03 0.03 0.03 0.03 0.03 0.03 0.03 0.02 0.02 0.01 0.01 0.00 0.00 0.00 0.00 0.00 0.00 0.00 0.00 0.00 0.00 0.00 0.00 0.00 0.00 0.00 0.00 0.00 0.00 0.00 0.00 0.00 0.00
0.02 0.03 0.03 0.03 0.03 0.03 0.03 0.02 0.02 0.02 0.02 0.02 0.01 0.01 0.00 0.00 0.00 0.00 0.00 0.00 0.00 0.00 0.00 0.00 0.00 0.00 0.00 0.00 0.00 0.00 0.00 0.00 0.00 0.00 0.00 0.00 0.00 0.00
0.01 0.01 0.01 0.01 0.01 0.01 0.01 0.01 0.01 0.01 0.00 0.00 0.00 0.00 0.00 0.00 0.00 0.00 0.00 0.00 0.00 0.00 0.00 0.00 0.00 0.00 0.00 0.00 0.00 0.00 0.00 0.00 0.00 0.00 0.00 0.00 0.00 0.00
0.01 0.01 0.01 0.01 0.00 0.00 0.00 0.00 0.00 0.00 0.00 0.00 0.00 0.00 0.00 0.00 0.00 0.00 0.00 0.00 0.00 0.00 0.00 0.00 0.00 0.00 0.00 0.00 0.00 0.00 0.00 0.00 0.00 0.00 0.00 0.00 0.00 0.00
0.01 0.00 0.00 0.00 0.00 0.00 0.00 0.00 0.00 0.00 0.00 0.00 0.00 0.00 0.00 0.00 0.00 0.00 0.00 0.00 0.00 0.00 0.00 0.00 0.00 0.00 0.00 0.00 0.00 0.00 0.00 0.00 0.00 0.00 0.00 0.00 0.00 0.00
MSLP
1019.17 1019.49 1019.83 1020.16 1020.46 1020.71 1020.89 1021.00 1021.06 1021.06 1021.04 1020.99 1020.94 1020.88 1020.83 1020.79 1020.75 1020.75 1020.79 1020.89 1021.08 1021.35 1021.70 1022.12 1022.58 1023.03 1023.45 1023.80 1024.06 1024.22 1024.31 1024.34 1024.33 1024.31 1024.29 1024.28 1024.28 1024.26
1018.56 1018.86 1019.18 1019.49 1019.78 1020.03 1020.25 1020.41 1020.55 1020.65 1020.73 1020.80 1020.85 1020.89 1020.91 1020.92 1020.92 1020.94 1021.00 1021.11 1021.31 1021.59 1021.97 1022.42 1022.91 1023.41 1023.87 1024.25 1024.54 1024.73 1024.82 1024.84 1024.82 1024.77 1024.73 1024.69 1024.65 1024.60
1017.84 1018.13 1018.44 1018.75 1019.05 1019.33 1019.59 1019.83 1020.05 1020.27 1020.48 1020.68 1020.86 1021.01 1021.14 1021.22 1021.29 1021.35 1021.43 1021.55 1021.76 1022.05 1022.44 1022.89 1023.40 1023.90 1024.37 1024.77 1025.06 1025.25 1025.33 1025.34 1025.29 1025.21 1025.13 1025.05 1024.98 1024.89
1017.06 1017.37 1017.69 1018.01 1018.33 1018.66 1018.98 1019.30 1019.64 1019.98 1020.32 1020.66 1020.97 1021.25 1021.48 1021.66 1021.79 1021.91 1022.02 1022.17 1022.38 1022.67 1023.04 1023.49 1023.97 1024.46 1024.91 1025.28 1025.55 1025.71 1025.77 1025.75 1025.67 1025.57 1025.45 1025.34 1025.23 1025.11
1016.29 1016.63 1016.98 1017.35 1017.72 1018.10 1018.50 1018.91 1019.35 1019.81 1020.27 1020.74 1021.17 1021.56 1021.90 1022.17 1022.37 1022.54 1022.70 1022.87 1023.08 1023.36 1023.72 1024.13 1024.57 1025.01 1025.42 1025.74 1025.97 1026.09 1026.11 1026.05 1025.94 1025.81 1025.67 1025.53 1025.39 1025.24
1015.64 1016.02 1016.42 1016.84 1017.28 1017.73 1018.20 1018.70 1019.23 1019.78 1020.34 1020.90 1021.44 1021.92 1022.34 1022.68 1022.96 1023.18 1023.37 1023.56 1023.79 1024.06 1024.38 1024.75 1025.14 1025.52 1025.85 1026.11 1026.28 1026.34 1026.32 1026.22 1026.08 1025.92 1025.77 1025.61 1025.47 1025.31
1015.19 1015.62 1016.08 1016.56 1017.06 1017.58 1018.13 1018.69 1019.29 1019.90 1020.53 1021.15 1021.74 1022.28 1022.76 1023.16 1023.48 1023.75 1023.97 1024.19 1024.42 1024.68 1024.97 1025.29 1025.62 1025.93 1026.19 1026.38 1026.47 1026.48 1026.41 1026.28 1026.11 1025.94 1025.77 1025.62 1025.47 1025.31
1015.02 1015.50 1016.01 1016.55 1017.11 1017.69 1018.28 1018.89 1019.52 1020.17 1020.81 1021.45 1022.06 1022.62 1023.12 1023.55 1023.91 1024.21 1024.46 1024.70 1024.93 1025.19 1025.45 1025.73 1026.00 1026.24 1026.43 1026.54 1026.57 1026.52 1026.41 1026.24 1026.06 1025.88 1025.71 1025.57 1025.43 1025.28
1015.17 1015.68 1016.24 1016.83 1017.43 1018.04 1018.66 1019.29 1019.92 1020.55 1021.19 1021.80 1022.39 1022.94 1023.43 1023.86 1024.23 1024.55 1024.82 1025.08 1025.32 1025.56 1025.80 1026.04 1026.26 1026.44 1026.57 1026.62 1026.59 1026.50 1026.34 1026.16 1025.97 1025.78 1025.62 1025.48 1025.36 1025.23
1015.64 1016.18 1016.76 1017.37 1017.99 1018.62 1019.24 1019.85 1020.45 1021.05 1021.63 1022.20 1022.74 1023.24 1023.70 1024.12 1024.48 1024.79 1025.08 1025.34 1025.58 1025.81 1026.04 1026.25 1026.43 1026.56 1026.63 1026.63 1026.56 1026.43 1026.26 1026.06 1025.86 1025.68 1025.52 1025.39 1025.27 1025.16
1016.42 1016.95 1017.54 1018.15 1018.76 1019.37 1019.96 1020.53 1021.08 1021.62 1022.13 1022.63 1023.10 1023.55 1023.96 1024.34 1024.68 1024.98 1025.26 1025.52 1025.76 1025.98 1026.19 1026.37 1026.51 1026.61 1026.64 1026.61 1026.52 1026.37 1026.18 1025.97 1025.77 1025.58 1025.43 1025.30 1025.19 1025.07
1017.43 1017.94 1018.50 1019.08 1019.67 1020.24 1020.78 1021.29 1021.78 1022.24 1022.68 1023.10 1023.50 1023.88 1024.24 1024.57 1024.88 1025.17 1025.43 1025.67 1025.90 1026.11 1026.29 1026.45 1026.56 1026.63 1026.64 1026.58 1026.47 1026.31 1026.12 1025.91 1025.70 1025.51 1025.35 1025.21 1025.09 1024.97
1018.60 1019.08 1019.59 1020.12 1020.66 1021.16 1021.64 1022.09 1022.51 1022.89 1023.26 1023.60 1023.94 1024.26 1024.56 1024.85 1025.12 1025.38 1025.62 1025.84 1026.04 1026.22 1026.38 1026.51 1026.60 1026.64 1026.63 1026.56 1026.44 1026.28 1026.09 1025.88 1025.67 1025.47 1025.29 1025.13 1024.99 1024.85
1019.86 1020.27 1020.73 1021.20 1021.66 1022.10 1022.51 1022.89 1023.23 1023.55 1023.85 1024.13 1024.41 1024.67 1024.93 1025.18 1025.42 1025.64 1025.84 1026.03 1026.20 1026.35 1026.48 1026.58 1026.64 1026.66 1026.64 1026.56 1026.44 1026.28 1026.09 1025.88 1025.66 1025.45 1025.25 1025.06 1024.88 1024.71
1021.11 1021.46 1021.85 1022.25 1022.64 1023.00 1023.34 1023.65 1023.93 1024.18 1024.43 1024.66 1024.90 1025.12 1025.34 1025.56 1025.76 1025.95 1026.12 1026.27 1026.40 1026.52 1026.60 1026.67 1026.70 1026.70 1026.66 1026.59 1026.46 1026.31 1026.12 1025.91 1025.68 1025.45 1025.22 1024.99 1024.77 1024.56
1022.29 1022.58 1022.90 1023.22 1023.54 1023.83 1024.10 1024.35 1024.57 1024.78 1024.99 1025.19 1025.39 1025.59 1025.78 1025.97 1026.14 1026.30 1026.43 1026.54 1026.63 1026.71 1026.75 1026.78 1026.79 1026.77 1026.72 1026.63 1026.51 1026.36 1026.17 1025.95 1025.72 1025.46 1025.20 1024.94 1024.67 1024.41
1023.34 1023.58 1023.83 1024.09 1024.34 1024.57 1024.78 1024.98 1025.16 1025.34 1025.51 1025.69 1025.87 1026.05 1026.23 1026.39 1026.53 1026.66 1026.76 1026.83 1026.88 1026.91 1026.92 1026.92 1026.89 1026.85 1026.79 1026.70 1026.57 1026.42 1026.23 1026.01 1025.76 1025.48 1025.19 1024.89 1024.58 1024.28
1024.22 1024.41 1024.62 1024.82 1025.02 1025.20 1025.37 1025.53 1025.68 1025.84 1025.99 1026.16 1026.32 1026.49 1026.65 1026.79 1026.91 1027.01 1027.07 1027.11 1027.13 1027.12 1027.10 1027.06 1027.01 1026.95 1026.87 1026.77 1026.65 1026.49 1026.29 1026.06 1025.80 1025.50 1025.19 1024.85 1024.51 1024.16
1024.91 1025.08 1025.25 1025.42 1025.58 1025.73 1025.87 1026.01 1026.14 1026.28 1026.43 1026.58 1026.74 1026.89 1027.03 1027.15 1027.25 1027.32 1027.36 1027.37 1027.35 1027.32 1027.27 1027.21 1027.14 1027.06 1026.96 1026.85 1026.72 1026.55 1026.35 1026.10 1025.83 1025.51 1025.17 1024.81 1024.43 1024.06
1025.43 1025.59 1025.75 1025.90 1026.04 1026.17 1026.30 1026.43 1026.55 1026.68 1026.82 1026.96 1027.11 1027.24 1027.37 1027.47 1027.54 1027.59 1027.60 1027.59 1027.55 1027.49 1027.42 1027.34 1027.25 1027.16 1027.05 1026.93 1026.78 1026.59 1026.38 1026.12 1025.83 1025.49 1025.13 1024.75 1024.36 1023.96
1025.79 1025.95 1026.11 1026.26 1026.40 1026.54 1026.67 1026.79 1026.92 1027.05 1027.18 1027.31 1027.44 1027.56 1027.66 1027.74 1027.79 1027.81 1027.80 1027.76 1027.71 1027.63 1027.55 1027.46 1027.36 1027.25 1027.13 1026.98 1026.82 1026.62 1026.38 1026.11 1025.79 1025.44 1025.06 1024.67 1024.26 1023.85
1026.02 1026.20 1026.37 1026.53 1026.69 1026.84 1026.98 1027.12 1027.25 1027.38 1027.50 1027.62 1027.73 1027.83 1027.91 1027.96 1027.98 1027.98 1027.95 1027.90 1027.83 1027.75 1027.65 1027.55 1027.44 1027.32 1027.18 1027.02 1026.83 1026.61 1026.35 1026.05 1025.71 1025.35 1024.96 1024.55 1024.13 1023.72
1026.16 1026.35 1026.54 1026.73 1026.91 1027.08 1027.24 1027.40 1027.54 1027.67 1027.79 1027.90 1027.99 1028.06 1028.11 1028.14 1028.14 1028.11 1028.07 1028.00 1027.93 1027.84 1027.74 1027.63 1027.51 1027.38 1027.22 1027.04 1026.83 1026.57 1026.28 1025.96 1025.60 1025.21 1024.81 1024.39 1023.97 1023.56
Thickness
5719 5718 5717 5716 5716 5715 5713 5710 5705 5699 5698 5700 5701 5703 5702 5702 5701 5700 5698 5696 5694 5691 5689 5687 5684 5682 5680 5677 5675 5672 5670 5668 5666 5665 5663 5661 5660 5659
5716 5715 5714 5713 5712 5711 5710 5708 5706 5702 5696 5695 5695 5695 5695 5695 5694 5693 5691 5689 5687 5685 5682 5680 5677 5675 5672 5669 5667 5664 5662 5659 5657 5656 5654 5652 5650 5649
5713 5712 5710 5710 5708 5707 5706 5704 5702 5699 5693 5690 5689 5688 5687 5686 5685 5683 5682 5680 5677 5675 5673 5670 5668 5665 5662 5660 5657 5654 5652 5650 5647 5646 5644 5642 5640 5639
5709 5708 5707 5706 5704 5702 5701 5699 5697 5695 5691 5685 5682 5680 5678 5677 5675 5673 5671 5669 5666 5664 5662 5659 5657 5654 5652 5649 5646 5643 5641 5639 5636 5634 5632 5630 5628 5626
5705 5703 5702 5700 5698 5696 5695 5693 5691 5689 5686 5680 5674 5671 5669 5667 5665 5662 5660 5657 5655 5652 5650 5647 5644 5642 5639 5637 5634 5632 5629 5627 5624 5622 5619 5618 5615 5613
5700 5698 5697 5695 5693 5691 5688 5686 5683 5679 5676 5672 5666 5662 5659 5656 5654 5651 5647 5644 5641 5639 5637 5634 5631 5629 5626 5624 5622 5619 5616 5614 5611 5609 5606 5604 5602 5600
5693 5692 5690 5688 5687 5685 5682 5678 5675 5671 5666 5662 5657 5653 5649 5646 5643 5640 5637 5632 5628 5625 5622 5620 5617 5615 5613 5610 5608 5605 5603 5600 5598 5596 5593 5591 5588 5586
5685 5683 5681 5679 5677 5675 5672 5669 5666 5662 5657 5653 5647 5643 5638 5635 5632 5630 5626 5623 5617 5611 5609 5605 5603 5601 5598 5596 5593 5592 5589 5587 5584 5581 5579 5577 5574 5572
5677 5675 5672 5669 5666 5664 5660 5658 5654 5651 5649 5645 5639 5634 5629 5626 5623 5619 5615 5611 5605 5600 5598 5593 5590 5588 5585 5582 5580 5578 5575 5573 5570 5567 5565 5563 5560 5558
5667 5664 5661 5658 5656 5653 5650 5645 5641 5637 5635 5632 5628 5623 5619 5615 5612 5608 5602 5597 5592 5587 5585 5581 5577 5574 5572 5569 5566 5563 5561 5558 5556 5553 5550 5548 5545 5543
5655 5653 5650 5647 5644 5642 5639 5634 5628 5623 5620 5618 5615 5611 5607 5604 5600 5596 5591 5587 5581 5575 5571 5569 5564 5561 5558 5555 5552 5549 5546 5544 5541 5538 5535 5532 5530 5528
5644 5641 5638 5636 5633 5630 5627 5623 5617 5611 5608 5605 5601 5598 5594 5590 5587 5583 5579 5574 5569 5564 5558 5555 5551 5547 5545 5541 5537 5534 5532 5529 5526 5523 5520 5518 5515 5513
5633 5629 5625 5623 5621 5618 5615 5611 5606 5600 5596 5592 5588 5583 5580 5576 5572 5568 5564 5561 5556 5550 5545 5541 5537 5533 5530 5527 5523 5520 5517 5514 5511 5509 5506 5503 5501 5498
5622 5617 5613 5611 5609 5605 5602 5597 5593 5589 5584 5579 5574 5569 5565 5560 5556 5553 5549 5545 5541 5536 5531 5528 5524 5520 5517 5514 5511 5507 5504 5501 5498 5495 5492 5490 5488 5486
5610 5606 5603 5599 5596 5592 5588 5584 5581 5576 5571 5566 5561 5555 5550 5546 5543 5539 5535 5530 5526 5522 5518 5514 5510 5506 5504 5501 5498 5494 5492 5489 5486 5483 5481 5478 5476 5475
5598 5594 5590 5587 5583 5578 5574 5570 5566 5561 5557 5552 5546 5541 5536 5533 5529 5525 5521 5516 5513 5508 5504 5501 5497 5494 5492 5489 5486 5483 5480 5477 5475 5472 5470 5468 5466 5464
5588 5583 5578 5574 5570 5565 5560 5555 5551 5547 5542 5537 5533 5529 5524 5520 5515 5510 5506 5502 5499 5495 5492 5488 5485 5483 5480 5477 5476 5473 5470 5467 5464 5462 5460 5459 5457 5454
5577 5571 5566 5562 5557 5552 5548 5542 5537 5533 5528 5524 5520 5516 5511 5507 5502 5497 5493 5490 5486 5483 5480 5476 5473 5473 5470 5468 5463 5462 5460 5458 5455 5452 5450 5449 5448 5446
5565 5559 5554 5549 5544 5539 5535 5530 5525 5520 5516 5512 5508 5504 5500 5495 5491 5487 5483 5479 5476 5472 5469 5465 5463 5461 5461 5460 5456 5452 5450 5448 5446 5444 5442 5440 5439 5438
5552 5547 5542 5537 5532 5528 5523 5518 5514 5509 5505 5501 5497 5493 5489 5485 5481 5477 5473 5469 5466 5463 5460 5457 5454 5451 5450 5448 5446 5444 5441 5439 5438 5437 5436 5433 5431 5430
5540 5535 5531 5526 5522 5517 5512 5508 5503 5499 5495 5491 5487 5482 5479 5475 5472 5468 5464 5459 5457 5455 5453 5450 5446 5442 5439 5437 5438 5438 5436 5433 5430 5428 5427 5427 5427 5426
5530 5526 5521 5517 5512 5508 5503 5498 5494 5489 5485 5481 5477 5473 5469 5466 5463 5459 5456 5453 5450 5447 5444 5442 5439 5436 5434 5433 5433 5432 5431 5428 5426 5423 5420 5418 5417 5419
5522 5517 5512 5508 5503 5498 5494 5489 5485 5481 5476 5473 5469 5465 5461 5458 5454 5451 5448 5445 5442 5440 5437 5436 5433 5431 5429 5426 5425 5425 5424 5423 5422 5420 5419 5416 5412 5410